Location: Nitra
(0.0000°N, 18.0833°E)
Time: 21:24:07
(UTC+02:00)

A-11 Canister half - Pass Details

Date: 06 April 2023
Orbit: 1526 x 1682 km, 47.3° (Epoch: 08 June)

Event Time Altitude Azimuth Distance (km) Brightness Sun altitude
Rises 12:02:27 0° 243° (WSW) 4,857 11.5 76.5°
Reaches altitude 10° 12:06:02 10° 253° (WSW) 3,889 11.1 77.2°
Maximum altitude 12:14:31 32° 311° (NW) 2,596 10.7 79.0°
Drops below altitude 10° 12:23:08 10° 10° (N) 3,933 11.4 80.7°
Sets 12:26:50 0° 20° (NNE) 4,919 11.8 81.3°
